[[{"header":{"parameterUnit":"m.s-1","parameterCategory":1,"la1":30.2991,"la2":30.254,"lo1":-89.0895,"lo2":-89.0444,"dy":0.0017,"dx":0.0017,"nx":28,"ny":28,"refTime":"2025-05-28T21:00:00:Z","depth":0,"parameterNumber":2,"parameterNumberName":"U-component_of_WINDS"},"data":[0,0,0,0,0,0,0,0,0,0,0,0,0,0,0,0,0,0,0,0,0,0,0,0,0,0,0,0,0,0,0,0,0,0,0,0,0,0,0,0,0,0,0,0,0,0,0,0,0,0,0,0,0,0,0,0,0,0,-1.099,-1.099,0,-1.0951,-1.0951,-1.0951,-1.0934,-1.0934,-1.0934,-1.0934,-1.0894,-1.0893,-1.0892,0,0,0,0,0,0,0,0,0,0,0,0,0,-1.1048,-1.1047,-1.099,-1.099,-1.0989,-1.0951,-1.0951,-1.095,-1.0934,-1.0934,-1.0934,-1.0934,-1.0894,-1.0893,-1.0892,0,0,0,0,0,0,0,0,0,0,0,0,0,-1.1017,-1.1047,-1.099,-1.0977,-1.0975,-1.0952,-1.0951,-1.095,-1.0934,-1.0934,-1.0934,-1.0934,-1.0895,-1.0893,-1.0892,-1.0879,0,0,-1.0886,-1.0886,0,0,0,0,0,0,0,0,-1.1019,-1.1015,-1.0979,-1.0977,-1.0976,-1.0948,-1.0957,-1.0926,-1.0934,-1.0949,-1.0934,-1.0934,-1.0912,-1.0909,-1.0901,-1.0877,-1.0876,-1.0886,-1.0885,-1.0884,-1.0884,0,0,0,0,0,0,0,-1.1021,-1.1017,-1.0975,-1.0979,-1.0976,-1.0971,-1.0967,-1.0951,-1.0931,-1.0948,-1.0947,-1.0942,-1.0911,-1.0903,-1.09,-1.0875,-1.0886,-1.0885,-1.0884,-1.0883,-1.0835,-1.0835,0,0,0,0,0,0,-1.1026,-1.1019,-1.0976,-1.0974,-1.0998,-1.097,-1.0966,-1.0956,-1.0931,-1.0927,-1.0942,-1.0942,-1.0906,-1.0902,-1.0899,-1.088,-1.0885,-1.0883,-1.0882,-1.0835,-1.0835,-1.0835,0,0,0,0,0,0,-1.1027,-1.1022,-1.0978,-1.0996,-1.099,-1.0969,-1.0959,-1.0956,-1.0948,-1.0926,-1.0922,-1.0938,-1.0906,-1.0901,-1.0883,-1.0878,-1.0882,-1.0881,-1.0835,-1.0835,-1.0835,-1.0844,0,0,0,0,0,0,-1.1029,-1.1023,-1.1019,-1.0996,-1.0989,-1.0964,-1.0959,-1.0955,-1.0945,-1.0944,-1.0921,-1.0918,-1.0905,-1.0886,-1.0882,-1.0876,-1.0879,-1.0836,-1.0835,-1.0835,-1.0844,-1.0844,-1.0844,0,0,0,0,0,-1.1031,-1.1024,-1.1019,-1.1014,-1.0983,-1.0964,-1.096,-1.0946,-1.0945,-1.0939,-1.0925,-1.0918,-1.088,-1.0884,-1.0879,-1.0873,-1.0836,-1.0835,-1.0835,-1.0844,-1.0844,-1.0844,0,0,0,0,0,0,-1.1047,-1.1021,-1.1015,-1.1,-1.0984,-1.0961,-1.0954,-1.0947,-1.0931,-1.0931,-1.0914,-1.0909,-1.0892,-1.0881,-1.0886,-1.0858,-1.0857,-1.0855,-1.0866,-1.0865,-1.0865,-1.0868,-1.0878,0,0,0,0,0,-1.1049,-1.1036,-1.1013,-1.1002,-1.0994,-1.0976,-1.0967,-1.0957,-1.094,-1.0933,-1.0918,-1.0901,-1.0885,-1.0875,-1.0859,-1.0842,-1.0836,-1.0835,-1.0835,-1.0835,-1.0834,-1.0821,-1.082,-1.0833,-1.0833,-1.0833,0,0,-1.1053,-1.1036,-1.1029,-1.1005,-1.0991,-1.0977,-1.097,-1.0956,-1.0944,-1.0931,-1.0913,-1.09,-1.0881,-1.0862,-1.0854,-1.0853,-1.0828,-1.0834,-1.0835,-1.0833,-1.082,-1.0819,-1.0818,-1.0832,-1.0832,-1.0832,0,0,-1.1052,-1.1039,-1.1027,-1.1013,-1.0992,-1.098,-1.0977,-1.0954,-1.0945,-1.0926,-1.0915,-1.09,-1.0874,-1.0859,-1.0848,-1.0838,-1.083,-1.0833,-1.0833,-1.082,-1.0819,-1.0818,-1.0812,-1.081,-1.0832,-1.0832,-1.0832,0,-1.1059,-1.1037,-1.1022,-1.1007,-1.0995,-1.0982,-1.0968,-1.0955,-1.0931,-1.0922,-1.0922,-1.0885,-1.0871,-1.0848,-1.0845,-1.0837,-1.0832,-1.0835,-1.082,-1.0819,-1.0818,-1.0812,-1.081,-1.0832,-1.0832,-1.0832,-1.0832,0,-1.1046,-1.103,-1.1023,-1.0998,-1.0986,-1.0972,-1.0953,-1.0942,-1.0933,-1.092,-1.0899,-1.0881,-1.086,-1.0853,-1.0845,-1.0828,-1.0827,-1.0824,-1.0823,-1.0817,-1.0811,-1.0809,-1.0833,-1.0833,-1.0832,-1.0832,0,0,-1.1056,-1.102,-1.1018,-1.1005,-1.098,-1.0967,-1.0951,-1.093,-1.092,-1.0902,-1.0887,-1.0863,-1.0858,-1.0846,-1.0835,-1.0824,-1.0814,-1.0822,-1.0821,-1.0819,-1.079,-1.0792,-1.079,-1.0808,-1.0808,-1.0808,-1.0791,0,-1.105,-1.1021,-1.1006,-1.0983,-1.0967,-1.0952,-1.0938,-1.092,-1.0906,-1.089,-1.0875,-1.0857,-1.0854,-1.0845,-1.0834,-1.0818,-1.0808,-1.0819,-1.0792,-1.0792,-1.0797,-1.0787,-1.079,-1.0776,-1.0789,-1.0789,-1.0788,0,-1.104,-1.1021,-1.0997,-1.097,-1.0963,-1.0951,-1.0928,-1.0913,-1.0891,-1.0882,-1.0866,-1.0855,-1.0836,-1.0836,-1.0808,-1.0815,-1.0803,-1.0793,-1.0792,-1.0788,-1.0789,-1.0781,-1.0771,-1.0768,-1.0785,-1.0785,-1.0786,0,-1.1047,-1.1016,-1.0997,-1.0986,-1.0956,-1.0947,-1.0933,-1.0912,-1.0898,-1.0878,-1.0869,-1.0847,-1.0835,-1.0817,-1.0799,-1.0802,-1.0772,-1.0771,-1.0762,-1.0762,-1.0756,-1.0756,-1.0742,-1.0751,-1.0751,-1.0751,-1.0751,0,-1.1042,-1.1027,-1.0999,-1.0987,-1.0969,-1.095,-1.0932,-1.0918,-1.0898,-1.0881,-1.0867,-1.0852,-1.083,-1.0811,-1.0797,-1.0774,-1.0769,-1.0759,-1.0755,-1.076,-1.0761,-1.0751,-1.0751,-1.075,-1.075,-1.0751,-1.0751,0,-1.1047,-1.1028,-1.1005,-1.0977,-1.0969,-1.0957,-1.0932,-1.0918,-1.0903,-1.0882,-1.0876,-1.0852,-1.0828,-1.0809,-1.0779,-1.0769,-1.0744,-1.0741,-1.0752,-1.0749,-1.074,-1.074,-1.0717,-1.0712,-1.0726,-1.0726,-1.0726,0,-1.1045,-1.1032,-1.1002,-1.099,-1.0976,-1.0957,-1.0943,-1.0923,-1.0908,-1.088,-1.087,-1.0845,-1.0825,-1.0788,-1.0767,-1.0743,-1.0737,-1.0731,-1.0734,-1.0737,-1.0734,-1.0735,-1.0732,-1.073,-1.073,-1.073,-1.073,0,-1.1041,-1.1032,-1.1012,-1.0988,-1.0971,-1.0952,-1.0932,-1.0922,-1.0898,-1.0882,-1.0857,-1.0841,-1.0809,-1.0784,-1.0757,-1.0742,-1.0731,-1.0729,-1.0725,-1.0729,-1.0735,-1.0729,-1.0749,-1.073,-1.073,-1.073,-1.073,-1.073,-1.1041,-1.1029,-1.1004,-1.0982,-1.0964,-1.0945,-1.093,-1.0911,-1.0891,-1.0862,-1.0852,-1.0826,-1.0801,-1.0763,-1.0747,-1.0726,-1.0724,-1.0719,-1.0718,-1.0716,-1.0716,-1.0739,-1.0721,-1.0721,-1.0721,-1.0721,-1.0721,0,-1.1036,-1.1018,-1.0998,-1.0969,-1.0951,-1.0942,-1.0918,-1.0903,-1.088,-1.0858,-1.0837,-1.0807,-1.0782,-1.0757,-1.073,-1.0717,-1.0712,-1.0711,-1.0711,-1.0707,-1.072,-1.0725,-1.0716,-1.0716,-1.0716,-1.0716,-1.0716,-1.0716,-1.1031,-1.1007,-1.0994,-1.0961,-1.0944,-1.0918,-1.0905,-1.0886,-1.0867,-1.0834,-1.0813,-1.0797,-1.0773,-1.0743,-1.0718,-1.0712,-1.0701,-1.0701,-1.0693,-1.0706,-1.0706,-1.0707,-1.0712,-1.07,-1.07,-1.0682,-1.0681,-1.0681]},{"header":{"parameterUnit":"m.s-1","parameterCategory":1,"la1":30.2991,"la2":30.254,"lo1":-89.0895,"lo2":-89.0444,"dy":0.0017,"dx":0.0017,"nx":28,"ny":28,"refTime":"2025-05-28T21:00:00:Z","depth":0,"parameterNumber":3,"parameterNumberName":"V-component_of_WINDS"},"data":[0,0,0,0,0,0,0,0,0,0,0,0,0,0,0,0,0,0,0,0,0,0,0,0,0,0,0,0,0,0,0,0,0,0,0,0,0,0,0,0,0,0,0,0,0,0,0,0,0,0,0,0,0,0,0,0,0,0,-1.084,-1.0839,0,-1.0768,-1.0767,-1.0766,-1.0742,-1.0742,-1.0743,-1.0743,-1.0663,-1.0661,-1.0658,0,0,0,0,0,0,0,0,0,0,0,0,0,-1.0952,-1.095,-1.084,-1.0839,-1.0838,-1.0768,-1.0767,-1.0766,-1.0742,-1.0742,-1.0743,-1.0743,-1.0664,-1.0661,-1.0658,0,0,0,0,0,0,0,0,0,0,0,0,0,-1.0894,-1.0949,-1.084,-1.0818,-1.0816,-1.0768,-1.0767,-1.0766,-1.0742,-1.0742,-1.0743,-1.0743,-1.0665,-1.0661,-1.0658,-1.0626,0,0,-1.0647,-1.0645,0,0,0,0,0,0,0,0,-1.0897,-1.089,-1.0822,-1.082,-1.0817,-1.0765,-1.0777,-1.0719,-1.0742,-1.077,-1.0743,-1.0744,-1.0696,-1.069,-1.0675,-1.0622,-1.0618,-1.0646,-1.0644,-1.0643,-1.0642,0,0,0,0,0,0,0,-1.0901,-1.0893,-1.0811,-1.0821,-1.0818,-1.081,-1.0802,-1.0766,-1.0731,-1.0767,-1.0765,-1.0758,-1.0695,-1.0679,-1.0673,-1.0617,-1.0647,-1.0643,-1.0641,-1.064,-1.0532,-1.0531,0,0,0,0,0,0,-1.091,-1.0896,-1.0814,-1.0809,-1.0859,-1.0807,-1.0799,-1.0781,-1.0731,-1.0724,-1.0757,-1.0757,-1.0685,-1.0677,-1.067,-1.0628,-1.0643,-1.0639,-1.0637,-1.0532,-1.0532,-1.0531,0,0,0,0,0,0,-1.0912,-1.0903,-1.0817,-1.0852,-1.0841,-1.0805,-1.0785,-1.0779,-1.0763,-1.0724,-1.0717,-1.0748,-1.0685,-1.0675,-1.0637,-1.0625,-1.0638,-1.0634,-1.0533,-1.0532,-1.0531,-1.0544,0,0,0,0,0,0,-1.0915,-1.0904,-1.0892,-1.0852,-1.0839,-1.0786,-1.0784,-1.0777,-1.0758,-1.0756,-1.0713,-1.0706,-1.0685,-1.0642,-1.0633,-1.062,-1.0631,-1.0534,-1.0533,-1.0532,-1.0544,-1.0543,-1.0543,0,0,0,0,0,-1.092,-1.0898,-1.0892,-1.0882,-1.0824,-1.0786,-1.0778,-1.0755,-1.0757,-1.0744,-1.0719,-1.0708,-1.0628,-1.0639,-1.0628,-1.0614,-1.0535,-1.0533,-1.0532,-1.0545,-1.0544,-1.0543,0,0,0,0,0,0,-1.0936,-1.0892,-1.0885,-1.085,-1.0822,-1.0782,-1.0765,-1.0755,-1.0724,-1.0724,-1.0695,-1.0685,-1.0649,-1.0627,-1.064,-1.0579,-1.0581,-1.0577,-1.0594,-1.0593,-1.0592,-1.0597,-1.0628,0,0,0,0,0,-1.0936,-1.091,-1.0873,-1.0845,-1.0832,-1.0801,-1.0783,-1.0768,-1.0737,-1.0724,-1.0696,-1.0665,-1.0632,-1.0611,-1.058,-1.0542,-1.053,-1.0526,-1.0525,-1.0525,-1.0521,-1.0498,-1.0495,-1.0526,-1.0526,-1.0526,0,0,-1.0934,-1.0908,-1.0893,-1.0848,-1.0824,-1.0796,-1.0791,-1.0762,-1.074,-1.0719,-1.0681,-1.066,-1.0622,-1.0584,-1.0565,-1.0565,-1.0511,-1.0523,-1.0523,-1.0519,-1.0496,-1.0493,-1.049,-1.0525,-1.0525,-1.0525,0,0,-1.0918,-1.0896,-1.087,-1.0847,-1.0812,-1.0791,-1.0785,-1.0747,-1.0732,-1.0694,-1.0677,-1.065,-1.0596,-1.0569,-1.0549,-1.0522,-1.0509,-1.0512,-1.0507,-1.0484,-1.0482,-1.0479,-1.0468,-1.0464,-1.0509,-1.0509,-1.0509,0,-1.092,-1.0879,-1.0858,-1.0829,-1.0809,-1.0791,-1.0764,-1.0741,-1.0697,-1.0682,-1.0683,-1.0614,-1.0588,-1.0542,-1.0535,-1.052,-1.051,-1.0516,-1.0484,-1.0481,-1.0479,-1.0467,-1.0463,-1.051,-1.0509,-1.0509,-1.0509,0,-1.0883,-1.0854,-1.0837,-1.0797,-1.0775,-1.0747,-1.0719,-1.0699,-1.0686,-1.0665,-1.0625,-1.0593,-1.0554,-1.0542,-1.0529,-1.0494,-1.0494,-1.049,-1.0491,-1.0477,-1.0465,-1.0461,-1.051,-1.051,-1.051,-1.051,0,0,-1.0873,-1.0822,-1.0816,-1.0796,-1.0756,-1.0733,-1.0703,-1.0667,-1.0649,-1.0619,-1.0592,-1.0546,-1.0542,-1.0519,-1.0502,-1.0482,-1.046,-1.048,-1.0478,-1.0476,-1.0417,-1.042,-1.0415,-1.0453,-1.0452,-1.0451,-1.042,0,-1.085,-1.0799,-1.0778,-1.0735,-1.0708,-1.069,-1.0664,-1.0636,-1.0615,-1.0587,-1.0563,-1.0531,-1.0529,-1.0514,-1.0494,-1.0467,-1.0448,-1.0469,-1.0425,-1.0423,-1.0433,-1.041,-1.0412,-1.0384,-1.0416,-1.0415,-1.0414,0,-1.0816,-1.0787,-1.0742,-1.0705,-1.0692,-1.067,-1.0634,-1.0608,-1.0574,-1.0561,-1.0535,-1.0519,-1.0485,-1.0489,-1.044,-1.0455,-1.0436,-1.042,-1.0418,-1.0411,-1.0417,-1.0401,-1.0375,-1.037,-1.0407,-1.0408,-1.0409,0,-1.0811,-1.0761,-1.0728,-1.0712,-1.0668,-1.0652,-1.0633,-1.06,-1.0579,-1.0547,-1.0532,-1.0497,-1.0476,-1.0448,-1.0421,-1.0427,-1.0374,-1.0377,-1.036,-1.036,-1.0348,-1.0349,-1.0317,-1.0338,-1.0338,-1.0339,-1.0339,0,-1.0786,-1.0759,-1.0725,-1.0704,-1.0672,-1.0649,-1.0617,-1.0596,-1.0567,-1.054,-1.0522,-1.0496,-1.0465,-1.0434,-1.0413,-1.0375,-1.0366,-1.0352,-1.0347,-1.0353,-1.0354,-1.0338,-1.0339,-1.0337,-1.0338,-1.0338,-1.0338,0,-1.0775,-1.0752,-1.0714,-1.0676,-1.0666,-1.0644,-1.061,-1.0587,-1.0567,-1.0532,-1.0523,-1.0489,-1.0452,-1.0424,-1.0376,-1.0362,-1.032,-1.0315,-1.0332,-1.0329,-1.0312,-1.0314,-1.0268,-1.0259,-1.0289,-1.0288,-1.0288,0,-1.076,-1.0739,-1.0699,-1.0681,-1.0662,-1.0633,-1.0612,-1.0587,-1.0565,-1.0525,-1.0507,-1.047,-1.0438,-1.038,-1.0349,-1.0312,-1.0304,-1.0291,-1.0298,-1.0305,-1.0302,-1.0302,-1.0299,-1.0289,-1.0289,-1.0289,-1.0289,0,-1.0735,-1.0725,-1.0696,-1.0663,-1.0639,-1.0611,-1.0583,-1.0568,-1.0538,-1.0514,-1.0478,-1.0453,-1.0405,-1.0367,-1.0326,-1.0303,-1.029,-1.0287,-1.0281,-1.0286,-1.0296,-1.0288,-1.0327,-1.0288,-1.0288,-1.0288,-1.0288,-1.0288,-1.072,-1.07,-1.0669,-1.0637,-1.0614,-1.0588,-1.0565,-1.0542,-1.0511,-1.0471,-1.0458,-1.042,-1.0384,-1.0329,-1.0306,-1.0274,-1.0273,-1.0264,-1.0262,-1.0259,-1.0259,-1.0303,-1.0266,-1.0266,-1.0266,-1.0266,-1.0266,0,-1.0693,-1.0672,-1.0644,-1.0605,-1.058,-1.0573,-1.0541,-1.0519,-1.0486,-1.0456,-1.0426,-1.0382,-1.0345,-1.0312,-1.0273,-1.0253,-1.0246,-1.0244,-1.0244,-1.0238,-1.0263,-1.0271,-1.025,-1.025,-1.025,-1.025,-1.025,-1.025,-1.0676,-1.0641,-1.0626,-1.0579,-1.0558,-1.0522,-1.0504,-1.0478,-1.0454,-1.0407,-1.0377,-1.0357,-1.0325,-1.0283,-1.0248,-1.0239,-1.0224,-1.0223,-1.0212,-1.0235,-1.0237,-1.0239,-1.0246,-1.022,-1.022,-1.0189,-1.0189,-1.0189]}]]